[Date Prev][Date Next][Thread Prev][Thread Next] - [Date Index][Thread Index][Author Index]
2 Line ISS Keps 5-13
- Subject: [sarex] 2 Line ISS Keps 5-13
- From: "Dr Dave Larsen [ PhD ]" <doc@xxxxxxxxxxx>
- Date: Sun, 13 May 2001 05:58:22 -0700
ISS
1 25544U 98067A 01133.46673130 .00039879 00000-0 49124-3 0 9661
2 25544 51.5712 263.7806 0017516 42.8691 32.2552 15.59627091141656
----
Via the sarex mailing list at AMSAT.ORG courtesy of AMSAT-NA.
To unsubscribe, send "unsubscribe sarex" to Majordomo@amsat.org
AMSAT Home